QTR76X EKCH-OTHH

Flight info

Callsign QTR76X
Flight time N/A
Altitude 39000
Route SIMEG Z493 BILRA DCT ROBOV DCT BAREX DCT KELEL DCT NARKA DCT ADORU UG80 EKI UN739 TUMER UT38 VESAR DCT NIKAS R785 RASLI P559 GADLI T503 TOTAD/N0489F410 T503 LABIS L604 KFA M691 LADNA N318 HAYYA
Aircraft B789/H-SDE1E2E3FGHIJ2J3J4J5M1RWXY/LB1D1

Departure

Time 2026-05-05 13:04
Airport Copenhagen Kastrup Airport (EKCH)

Arrival

Time N/A
Airport Hamad International Airport (OTHH)
Time Latitude Longitude Altitude Speed Heading
2026-05-05 12:46 55.62494 12.64884 25 ft 0 kts 89°
2026-05-05 12:54 55.62494 12.64858 31 ft 2 kts 88°
2026-05-05 12:54 55.62493 12.64828 31 ft 2 kts 89°
2026-05-05 12:55 55.62496 12.64800 31 ft 2 kts 128°
2026-05-05 12:55 55.62508 12.64782 31 ft 2 kts 151°
2026-05-05 12:55 55.62524 12.64772 31 ft 2 kts 176°
2026-05-05 12:55 55.62540 12.64771 31 ft 2 kts 179°
2026-05-05 12:56 55.62557 12.64771 31 ft 2 kts 179°
2026-05-05 12:56 55.62573 12.64770 31 ft 2 kts 179°
2026-05-05 12:56 55.62583 12.64770 31 ft 0 kts 180°
2026-05-05 12:56 55.62584 12.64770 31 ft 0 kts 180°
2026-05-05 12:58 55.62583 12.64770 31 ft 0 kts 180°
2026-05-05 12:59 55.62560 12.64770 31 ft 7 kts 180°
2026-05-05 12:59 55.62488 12.64770 31 ft 13 kts 180°
2026-05-05 12:59 55.62394 12.64779 27 ft 14 kts 176°
2026-05-05 13:00 55.62207 12.64772 28 ft 18 kts 207°
2026-05-05 13:00 55.62096 12.64640 31 ft 22 kts 215°
2026-05-05 13:01 55.61591 12.64471 26 ft 20 kts 214°
2026-05-05 13:01 55.61509 12.64376 26 ft 21 kts 213°
2026-05-05 13:01 55.61377 12.64227 23 ft 24 kts 212°
2026-05-05 13:01 55.61229 12.64055 21 ft 26 kts 215°
2026-05-05 13:02 55.61081 12.63878 28 ft 26 kts 213°
2026-05-05 13:02 55.60926 12.63700 26 ft 27 kts 213°
2026-05-05 13:02 55.60766 12.63515 30 ft 28 kts 213°
2026-05-05 13:02 55.60600 12.63308 27 ft 30 kts 220°
2026-05-05 13:03 55.60458 12.63114 30 ft 16 kts 193°
2026-05-05 13:03 55.60386 12.63183 31 ft 11 kts 128°
2026-05-05 13:03 55.60342 12.63300 34 ft 11 kts 102°
2026-05-05 13:03 55.60376 12.63414 33 ft 13 kts 39°
2026-05-05 13:04 55.60521 12.63635 30 ft 56 kts 41°
2026-05-05 13:04 55.60997 12.64373 31 ft 125 kts 41°
2026-05-05 13:04 55.61782 12.65603 219 ft 166 kts 45°
2026-05-05 13:04 55.62673 12.67036 897 ft 185 kts 39°
2026-05-05 13:05 55.63722 12.68589 1756 ft 208 kts 38°
2026-05-05 13:05 55.64853 12.70338 2427 ft 220 kts 38°
2026-05-05 13:05 55.66054 12.72025 3235 ft 222 kts 38°
2026-05-05 13:05 55.67224 12.73859 3989 ft 227 kts 39°
2026-05-05 13:06 55.68223 12.76027 4752 ft 235 kts 65°
2026-05-05 13:06 55.68271 12.78957 5427 ft 249 kts 105°
2026-05-05 13:06 55.67254 12.81430 6133 ft 255 kts 142°
2026-05-05 13:06 55.65716 12.83029 6811 ft 263 kts 154°
2026-05-05 13:07 55.64017 12.84566 7214 ft 287 kts 155°
2026-05-05 13:07 55.62251 12.86157 8292 ft 285 kts 155°
2026-05-05 13:07 55.60485 12.87794 9254 ft 289 kts 155°
2026-05-05 13:07 55.58677 12.89520 10155 ft 294 kts 155°
2026-05-05 13:08 55.56836 12.91303 10506 ft 320 kts 155°
2026-05-05 13:08 55.54796 12.93275 10723 ft 348 kts 155°
2026-05-05 13:08 55.52682 12.95683 10878 ft 379 kts 141°
2026-05-05 13:08 55.50895 12.99191 11676 ft 387 kts 131°
2026-05-05 13:09 55.49244 13.02990 12472 ft 393 kts 130°
2026-05-05 13:09 55.47525 13.06734 13242 ft 397 kts 135°
2026-05-05 13:09 55.45626 13.10296 14004 ft 400 kts 138°
2026-05-05 13:09 55.43696 13.13861 14711 ft 405 kts 136°
2026-05-05 13:10 55.41805 13.17579 15447 ft 409 kts 135°
2026-05-05 13:10 55.39915 13.21355 16152 ft 413 kts 136°
2026-05-05 13:10 55.37978 13.25116 16855 ft 416 kts 136°
2026-05-05 13:10 55.36010 13.28882 17545 ft 420 kts 136°
2026-05-05 13:11 55.34035 13.32696 18227 ft 424 kts 136°
2026-05-05 13:11 55.32069 13.36516 18803 ft 428 kts 136°
2026-05-05 13:11 55.30065 13.40391 19385 ft 430 kts 137°
2026-05-05 13:11 55.28041 13.44279 19970 ft 433 kts 137°
2026-05-05 13:12 55.26002 13.48193 20534 ft 436 kts 137°
2026-05-05 13:12 55.23987 13.52208 21046 ft 441 kts 134°
2026-05-05 13:12 55.21979 13.56293 21565 ft 443 kts 136°